| time (UTC) | temp C | wind direction | speed KPH | gust KPH | rain 1hr cm | rain 24hr cm | rain mn cm | humidity % | barometer mb |
| 20260502200026 | 9 | 326 | 0.0 | 4.8 | 0.00 | 0.00 | 0.00 | 26 | 1019.1 |
| 20260502193026 | 10 | 333 | 0.0 | 4.8 | 0.00 | 0.00 | 0.00 | 26 | 1019.0 |
| 20260502190026 | 11 | 317 | 0.0 | 3.2 | 0.00 | 0.00 | 0.00 | 23 | 1018.3 |
| 20260502183025 | 13 | 303 | 0.0 | 6.4 | 0.00 | 0.00 | 0.00 | 22 | 1016.3 |
| 20260502163026 | 16 | 275 | 0.0 | 14.5 | 0.00 | 0.00 | 0.00 | 19 | 1015.0 |
| 20260502123027 | 18 | 288 | 0.0 | 19.3 | 0.00 | 0.00 | 0.00 | 18 | 1016.4 |
| 20260502113137 | 17 | 256 | 0.0 | 14.5 | 0.00 | 0.00 | 0.00 | 21 | 1017.9 |
| 20260502113026 | 17 | 256 | 0.0 | 14.5 | 0.00 | 0.00 | 0.00 | 21 | 1017.9 |
| 20260502110025 | 17 | 297 | 0.0 | 14.5 | 0.00 | 0.00 | 0.00 | 18 | 1018.2 |
| 20260502103026 | 16 | 260 | 0.0 | 16.1 | 0.00 | 0.00 | 0.00 | 21 | 1019.5 |
| 20260502070026 | 11 | 191 | 0.0 | 6.4 | 0.00 | 0.00 | 0.00 | 26 | 1023.0 |
| 20260502063027 | 10 | 198 | 0.0 | 6.4 | 0.00 | 0.00 | 0.00 | 28 | 1023.5 |
| 20260502060025 | 8 | 200 | 0.0 | 4.8 | 0.00 | 0.00 | 0.00 | 29 | 1024.3 |
| 20260502053025 | 6 | 327 | 0.0 | 0.0 | 0.00 | 0.00 | 0.00 | 33 | 1025.3 |
| 20260502050025 | 3 | 327 | 0.0 | 0.0 | 0.00 | 0.00 | 0.00 | 35 | 1026.5 |
| 20260502043025 | 2 | 0 | 0.0 | 0.0 | 0.00 | 0.00 | 0.00 | 34 | 1026.7 |
| 20260502040025 | 2 | 0 | 0.0 | 0.0 | 0.00 | 0.00 | 0.00 | 34 | 1026.8 |
| 20260502033025 | 2 | 0 | 0.0 | 3.2 | 0.00 | 0.00 | 0.00 | 33 | 1026.7 |
| 20260502030026 | 3 | 0 | 0.0 | 0.0 | 0.00 | 0.00 | 0.00 | 32 | 1026.6 |
| 20260502023025 | 3 | 0 | 0.0 | 0.0 | 0.00 | 0.00 | 0.00 | 32 | 1026.5 |
| 20260502020025 | 3 | 0 | 0.0 | 4.8 | 0.00 | 0.00 | 0.00 | 32 | 1026.4 |
| 20260502013025 | 3 | 0 | 0.0 | 4.8 | 0.00 | 0.00 | 0.00 | 32 | 1026.5 |
| 20260502010025 | 3 | 0 | 0.0 | 3.2 | 0.00 | 0.00 | 0.00 | 31 | 1026.3 |
| 20260502003025 | 3 | 0 | 0.0 | 4.8 | 0.00 | 0.00 | 0.00 | 31 | 1026.4 |
| 20260502000025 | 3 | 343 | 0.0 | 0.0 | 0.00 | 0.00 | 0.00 | 30 | 1026.3 |
| 20260501233025 | 3 | 343 | 0.0 | 0.0 | 0.00 | 0.00 | 0.00 | 30 | 1026.2 |
| 20260501230025 | 3 | 343 | 0.0 | 4.8 | 0.00 | 0.00 | 0.00 | 29 | 1026.2 |
| 20260501223025 | 4 | 342 | 0.0 | 4.8 | 0.00 | 0.00 | 0.00 | 29 | 1026.1 |
| 20260501220025 | 5 | 304 | 0.0 | 0.0 | 0.00 | 0.00 | 0.00 | 29 | 1025.7 |
| 20260501210025 | 5 | 1 | 0.0 | 4.8 | 0.00 | 0.00 | 0.00 | 28 | 1024.4 |
| 20260501203025 | 6 | 11 | 0.0 | 4.8 | 0.00 | 0.00 | 0.00 | 28 | 1024.2 |